Flag for Germany Weather past 2 weeks in Wittlich, Rhineland-Palatinate, Germany

Now
49 °F

Passing clouds.


Feels Like: 49 °F
Forecast: 56 / 80 °F
Wind: No wind

Location: Spangdahlem

Current Time: Jul 31, 2015 at 3:11:37 AM

Latest Report: Jul 31, 2015 at 1:58 AM


Visibility: N/A

Pressure: 30.09 "Hg

Humidity: 98%

Dew point: 49 °F

Location of WittlichLocation

Historic Weather in Wittlich — Graph

°F

Wittlich temperature yesterday

Maximum temperature yesterday: 65 °F (at 12:58 PM)
Minimum temperature yesterday: 46 °F (at 5:58 AM)
Average temperature yesterday: 55 °F

Past Weeks' High & Low Weather Summary

 TemperatureHumidityPressure
High91 °F (Jul 17, 3:58 PM)100% (Jul 19, 7:58 AM)30.11 "Hg (Jul 19, 7:58 AM)
Low46 °F (Jul 30, 5:58 AM)24% (Jul 17, 2:58 PM)29.57 "Hg (Jul 25, 6:58 AM)
Average66 °F69%29.87 "Hg
* Reported Jul 16 1:58 AM — Jul 31 1:58 AM, Wittlich, Weather by CustomWeather, © 2015

Note: Actual official high and low records may vary slightly from our data, if they occured in-between our weather recording intervals... More about our weather records

Advertising

Wittlich weather history for previous 24 hours

 ConditionsComfort  
Time TempWeatherWind HumidityBarometerVisibility
1:58 AM
Fri, Jul 31
50 °FPassing clouds.No wind94%30.09 "HgN/A
12:58 AM50 °FClear.No wind98%30.08 "HgN/A
12:04 AM50 °FPassing clouds.No wind100%30.11 "HgN/A
10:58 PM
Thu, Jul 30
52 °FPassing clouds.3 mph94%30.06 "HgN/A
9:58 PM52 °FOvercast.2 mph94%30.05 "HgN/A
8:58 PM52 °FOvercast.5 mph100%30.04 "HgN/A
8:03 PM52 °FHeavy rain. Fog.5 mph94%30.06 "Hg2 mi
7:58 PM52 °FHeavy rain. Fog.6 mph94%30.04 "Hg2 mi
7:02 PM59 °FPartly sunny.No wind68%30.04 "HgN/A
5:58 PM57 °FPartly sunny.3 mph81%30.02 "HgN/A
5:02 PM55 °FDrizzle. Broken clouds.7 mph82%30.04 "HgN/A
3:58 PM63 °FMore clouds than sun.12 mph51%29.99 "HgN/A
3:00 PM64 °FPartly sunny.14 mph43%30.01 "HgN/A
2:58 PM64 °FPartly sunny.12 mph42%29.97 "HgN/A
1:58 PM63 °FPassing clouds.7 mph49%29.97 "HgN/A
12:58 PM65 °FSunny.8 mph45%29.96 "HgN/A
11:58 AM63 °FPassing clouds.8 mph52%29.97 "HgN/A
10:58 AM59 °FScattered clouds.9 mph64%29.97 "HgN/A
9:58 AM56 °FSunny.7 mph74%29.97 "HgN/A
8:58 AM53 °FSunny.6 mph79%29.96 "HgN/A
7:58 AM49 °FSunny.1 mph82%29.95 "HgN/A
6:58 AM46 °FClear.5 mph87%29.96 "HgN/A
5:58 AM46 °FClear.2 mph86%29.94 "HgN/A
4:58 AM47 °FClear.No wind84%29.94 "HgN/A
3:58 AM46 °FClear.2 mph87%29.94 "HgN/A
Weather by CustomWeather, © 2015

See weather overviewHow to use our weather pages